Location: Dos Palmas
(32.4468°N, 116.8732°W)
Time: 00:39:17
(UTC+00:00)

Cosmos 44 - Pass Details

Date: 20 June 2021
Orbit: 572 x 790 km, 65.1° (Epoch: 01 August)

Event Time Altitude Azimuth Distance (km) Brightness Sun altitude
Exits shadow 10:45:42 31° 180° (S) 1,274 4.2 -20.0°
Maximum altitude 10:47:59 59° 114° (ESE) 873 3.8 -19.7°
Drops below altitude 10° 10:53:15 10° 36° (NE) 2,328 7.2 -18.9°
Sets 10:55:44 0° 33° (NNE) 3,274 8.3 -18.5°
